Time,TemperatureF,DewpointF,PressureIn,WindDirection,WindDirectionDegrees,WindSpeedMPH,WindSpeedGustMPH,Humidity,HourlyPrecipIn,Conditions,Clouds,dailyrainin,SoftwareType,DateUTC
2013-01-08 00:00:00,18.1,15.4,30.40,East,98,0.0,0.0,89,0.00,,---,0.00,VWS V14.01,2013-01-08 05:00:00,
2013-01-08 00:02:00,18.1,15.4,30.41,East,98,0.0,0.0,89,0.00,,---,0.00,VWS V14.01,2013-01-08 05:02:00,
2013-01-08 00:07:00,18.1,15.4,30.41,East,98,0.0,0.0,89,0.00,,---,0.00,VWS V14.01,2013-01-08 05:07:00,
2013-01-08 00:12:00,18.1,15.7,30.40,East,98,0.0,0.0,90,0.00,,---,0.00,VWS V14.01,2013-01-08 05:12:00,
2013-01-08 00:17:00,18.2,15.8,30.40,East,98,0.0,0.0,90,0.00,,---,0.00,VWS V14.01,2013-01-08 05:17:00,
2013-01-08 00:22:00,18.2,15.8,30.40,East,98,0.0,0.0,90,0.00,,---,0.00,VWS V14.01,2013-01-08 05:22:00,
2013-01-08 00:27:00,18.2,15.8,30.40,East,98,0.0,0.0,90,0.00,,---,0.00,VWS V14.01,2013-01-08 05:27:00,
2013-01-08 00:32:00,18.3,15.9,30.40,East,98,0.0,0.0,90,0.00,,---,0.00,VWS V14.01,2013-01-08 05:32:00,
2013-01-08 00:37:00,18.3,15.9,30.40,East,98,0.0,0.0,90,0.00,,---,0.00,VWS V14.01,2013-01-08 05:37:00,
2013-01-08 00:42:00,18.3,15.9,30.40,East,98,0.0,0.0,90,0.00,,---,0.00,VWS V14.01,2013-01-08 05:42:00,
2013-01-08 00:47:00,18.3,15.9,30.40,East,98,0.0,0.0,90,0.00,,---,0.00,VWS V14.01,2013-01-08 05:47:00,
2013-01-08 00:52:00,18.2,15.8,30.40,East,98,0.0,0.0,90,0.00,,---,0.00,VWS V14.01,2013-01-08 05:52:00,
2013-01-08 00:57:00,18.2,15.8,30.40,East,98,0.0,0.0,90,0.00,,---,0.00,VWS V14.01,2013-01-08 05:57:00,
2013-01-08 01:02:00,18.2,15.8,30.40,East,98,0.0,0.0,90,0.00,,---,0.00,VWS V14.01,2013-01-08 06:02:00,
2013-01-08 01:07:00,18.1,15.7,30.40,East,98,0.0,0.0,90,0.00,,---,0.00,VWS V14.01,2013-01-08 06:07:00,
2013-01-08 01:12:00,18.1,15.7,30.40,East,98,0.0,0.0,90,0.00,,---,0.00,VWS V14.01,2013-01-08 06:12:00,
2013-01-08 01:17:00,18.1,15.7,30.40,SE,131,1.0,1.0,90,0.00,,---,0.00,VWS V14.01,2013-01-08 06:17:00,
2013-01-08 01:22:00,18.0,15.6,30.40,SSE,147,0.0,0.0,90,0.00,,---,0.00,VWS V14.01,2013-01-08 06:22:00,
2013-01-08 01:27:00,18.0,15.6,30.40,SSE,147,0.0,0.0,90,0.00,,---,0.00,VWS V14.01,2013-01-08 06:27:00,
2013-01-08 01:32:00,18.0,15.6,30.40,SSE,147,0.0,0.0,90,0.00,,---,0.00,VWS V14.01,2013-01-08 06:32:00,
2013-01-08 01:37:00,18.1,15.7,30.40,SSE,147,0.0,0.0,90,0.00,,---,0.00,VWS V14.01,2013-01-08 06:37:00,
2013-01-08 01:42:00,18.1,15.9,30.40,SSE,147,0.0,1.0,91,0.00,,---,0.00,VWS V14.01,2013-01-08 06:42:00,
2013-01-08 01:47:00,18.3,16.1,30.40,South,184,2.0,2.0,91,0.00,,---,0.00,VWS V14.01,2013-01-08 06:47:00,
2013-01-08 01:52:00,19.2,17.3,30.40,South,184,0.0,1.0,92,0.00,,---,0.00,VWS V14.01,2013-01-08 06:52:00,
2013-01-08 01:57:00,20.1,17.9,30.39,South,184,0.0,0.0,91,0.00,,---,0.00,VWS V14.01,2013-01-08 06:57:00,
2013-01-08 02:02:00,20.8,18.3,30.39,South,184,0.0,2.0,90,0.00,,---,0.00,VWS V14.01,2013-01-08 07:02:00,
2013-01-08 02:07:00,21.8,18.8,30.39,SSW,195,0.0,3.0,88,0.00,,---,0.00,VWS V14.01,2013-01-08 07:07:00,
2013-01-08 02:12:00,22.8,19.2,30.39,SW,218,0.0,4.0,86,0.00,,---,0.00,VWS V14.01,2013-01-08 07:12:00,
2013-01-08 02:17:00,23.8,19.4,30.39,SSW,195,3.0,3.0,83,0.00,,---,0.00,VWS V14.01,2013-01-08 07:17:00,
2013-01-08 02:22:00,24.6,19.9,30.40,SSW,201,0.0,1.0,82,0.00,,---,0.00,VWS V14.01,2013-01-08 07:22:00,
2013-01-08 02:27:00,25.2,19.9,30.39,South,181,0.0,2.0,80,0.00,,---,0.00,VWS V14.01,2013-01-08 07:27:00,
2013-01-08 02:32:00,25.5,19.9,30.40,South,188,1.0,2.0,79,0.00,,---,0.00,VWS V14.01,2013-01-08 07:32:00,
2013-01-08 02:37:00,25.7,20.1,30.39,SW,223,2.0,2.0,79,0.00,,---,0.00,VWS V14.01,2013-01-08 07:37:00,
2013-01-08 02:42:00,25.9,20.3,30.39,SSW,211,0.0,0.0,79,0.00,,---,0.00,VWS V14.01,2013-01-08 07:42:00,
2013-01-08 02:47:00,26.3,20.7,30.39,SSW,213,2.0,3.0,79,0.00,,---,0.00,VWS V14.01,2013-01-08 07:47:00,
2013-01-08 02:52:00,26.5,20.9,30.39,SSW,213,3.0,3.0,79,0.00,,---,0.00,VWS V14.01,2013-01-08 07:52:00,
2013-01-08 02:57:00,26.5,20.6,30.39,SSW,196,0.0,2.0,78,0.00,,---,0.00,VWS V14.01,2013-01-08 07:57:00,
2013-01-08 03:02:00,26.5,20.9,30.39,SSW,205,0.0,3.0,79,0.00,,---,0.00,VWS V14.01,2013-01-08 08:02:00,
2013-01-08 03:07:00,26.4,20.8,30.39,SSW,203,0.0,2.0,79,0.00,,---,0.00,VWS V14.01,2013-01-08 08:07:00,
2013-01-08 03:12:00,26.3,20.7,30.38,South,182,2.0,2.0,79,0.00,,---,0.00,VWS V14.01,2013-01-08 08:12:00,
2013-01-08 03:17:00,26.3,20.7,30.38,South,184,0.0,3.0,79,0.00,,---,0.00,VWS V14.01,2013-01-08 08:17:00,
2013-01-08 03:22:00,26.3,21.0,30.37,SW,216,1.0,3.0,80,0.00,,---,0.00,VWS V14.01,2013-01-08 08:22:00,
2013-01-08 03:27:00,26.2,21.2,30.37,SSW,192,2.0,3.0,81,0.00,,---,0.00,VWS V14.01,2013-01-08 08:27:00,
2013-01-08 03:32:00,26.2,21.2,30.37,WSW,242,0.0,2.0,81,0.00,,---,0.00,VWS V14.01,2013-01-08 08:32:00,
2013-01-08 03:37:00,26.2,21.2,30.37,SSW,208,2.0,3.0,81,0.00,,---,0.00,VWS V14.01,2013-01-08 08:37:00,
2013-01-08 03:42:00,26.2,21.5,30.37,SSW,207,2.0,3.0,82,0.00,,---,0.00,VWS V14.01,2013-01-08 08:42:00,
2013-01-08 03:47:00,26.1,21.4,30.37,SSW,208,3.0,3.0,82,0.00,,---,0.00,VWS V14.01,2013-01-08 08:47:00,
2013-01-08 03:52:00,26.0,21.0,30.37,SSW,209,0.0,3.0,81,0.00,,---,0.00,VWS V14.01,2013-01-08 08:52:00,
2013-01-08 03:57:00,25.7,21.0,30.37,SSW,205,0.0,1.0,82,0.00,,---,0.00,VWS V14.01,2013-01-08 08:57:00,
2013-01-08 04:02:00,25.5,20.8,30.37,SSW,206,2.0,2.0,82,0.00,,---,0.00,VWS V14.01,2013-01-08 09:02:00,
2013-01-08 04:07:00,25.3,20.9,30.37,SSW,212,2.0,2.0,83,0.00,,---,0.00,VWS V14.01,2013-01-08 09:07:00,
2013-01-08 04:12:00,25.2,21.0,30.37,SSW,211,1.0,2.0,84,0.00,,---,0.00,VWS V14.01,2013-01-08 09:12:00,
2013-01-08 04:17:00,25.1,21.0,30.37,SSW,211,0.0,2.0,84,0.00,,---,0.00,VWS V14.01,2013-01-08 09:17:00,
2013-01-08 04:22:00,24.9,21.0,30.37,SSW,211,1.0,2.0,85,0.00,,---,0.00,VWS V14.01,2013-01-08 09:22:00,
2013-01-08 04:27:00,24.8,20.9,30.37,SSW,211,0.0,0.0,85,0.00,,---,0.00,VWS V14.01,2013-01-08 09:27:00,
2013-01-08 04:32:00,24.6,20.7,30.37,SSW,211,1.0,1.0,85,0.00,,---,0.00,VWS V14.01,2013-01-08 09:32:00,
2013-01-08 04:37:00,24.5,20.6,30.37,SSW,211,0.0,1.0,85,0.00,,---,0.00,VWS V14.01,2013-01-08 09:37:00,
2013-01-08 04:42:00,24.3,20.5,30.37,SSW,211,0.0,2.0,85,0.00,,---,0.00,VWS V14.01,2013-01-08 09:42:00,
2013-01-08 04:47:00,24.0,20.4,30.37,SSW,213,0.0,2.0,86,0.00,,---,0.00,VWS V14.01,2013-01-08 09:47:00,
2013-01-08 04:52:00,23.8,20.2,30.37,SSW,205,1.0,2.0,86,0.00,,---,0.00,VWS V14.01,2013-01-08 09:52:00,
2013-01-08 04:57:00,23.7,20.4,30.37,SSW,205,2.0,2.0,87,0.00,,---,0.00,VWS V14.01,2013-01-08 09:57:00,
2013-01-08 05:02:00,23.7,20.7,30.36,SSW,201,1.0,3.0,88,0.00,,---,0.00,VWS V14.01,2013-01-08 10:02:00,
2013-01-08 05:07:00,23.8,21.0,30.36,SSW,195,1.0,2.0,89,0.00,,---,0.00,VWS V14.01,2013-01-08 10:07:00,
2013-01-08 05:12:00,24.1,21.9,30.36,SW,217,2.0,4.0,91,0.00,,---,0.00,VWS V14.01,2013-01-08 10:12:00,
2013-01-08 05:17:00,24.9,22.6,30.36,South,184,0.0,3.0,91,0.00,,---,0.00,VWS V14.01,2013-01-08 10:17:00,
2013-01-08 05:22:00,25.8,23.5,30.36,SSW,206,4.0,4.0,91,0.00,,---,0.00,VWS V14.01,2013-01-08 10:22:00,
2013-01-08 05:27:00,26.5,24.0,30.36,WSW,238,3.0,3.0,90,0.00,,---,0.00,VWS V14.01,2013-01-08 10:27:00,
2013-01-08 05:32:00,26.9,24.1,30.36,SSW,199,2.0,3.0,89,0.00,,---,0.00,VWS V14.01,2013-01-08 10:32:00,
2013-01-08 05:37:00,27.1,24.3,30.36,South,190,2.0,3.0,89,0.00,,---,0.00,VWS V14.01,2013-01-08 10:37:00,
2013-01-08 05:42:00,27.4,24.6,30.35,South,182,2.0,2.0,89,0.00,,---,0.00,VWS V14.01,2013-01-08 10:42:00,
2013-01-08 05:47:00,27.6,24.5,30.35,SSW,197,2.0,3.0,88,0.00,,---,0.00,VWS V14.01,2013-01-08 10:47:00,
2013-01-08 05:52:00,27.9,24.8,30.35,SSW,194,1.0,3.0,88,0.00,,---,0.00,VWS V14.01,2013-01-08 10:52:00,
2013-01-08 05:57:00,28.0,24.6,30.35,SW,215,1.0,4.0,87,0.00,,---,0.00,VWS V14.01,2013-01-08 10:57:00,
2013-01-08 06:02:00,28.0,24.9,30.35,SSW,209,3.0,4.0,88,0.00,,---,0.00,VWS V14.01,2013-01-08 11:02:00,
2013-01-08 06:07:00,28.0,24.6,30.35,SW,223,1.0,4.0,87,0.00,,---,0.00,VWS V14.01,2013-01-08 11:07:00,
2013-01-08 06:12:00,27.9,24.5,30.36,SSW,194,1.0,3.0,87,0.00,,---,0.00,VWS V14.01,2013-01-08 11:12:00,
2013-01-08 06:17:00,27.8,24.4,30.36,SW,219,1.0,3.0,87,0.00,,---,0.00,VWS V14.01,2013-01-08 11:17:00,
2013-01-08 06:22:00,27.8,24.4,30.36,SSE,167,2.0,5.0,87,0.00,,---,0.00,VWS V14.01,2013-01-08 11:22:00,
2013-01-08 06:27:00,27.6,24.2,30.36,SW,225,1.0,3.0,87,0.00,,---,0.00,VWS V14.01,2013-01-08 11:27:00,
2013-01-08 06:32:00,27.6,24.2,30.36,SSW,204,2.0,4.0,87,0.00,,---,0.00,VWS V14.01,2013-01-08 11:32:00,
2013-01-08 06:37:00,27.5,24.1,30.36,South,185,2.0,2.0,87,0.00,,---,0.00,VWS V14.01,2013-01-08 11:37:00,
2013-01-08 06:42:00,27.4,24.3,30.36,SW,217,1.0,3.0,88,0.00,,---,0.00,VWS V14.01,2013-01-08 11:42:00,
2013-01-08 06:47:00,27.5,24.4,30.36,SSW,196,2.0,4.0,88,0.00,,---,0.00,VWS V14.01,2013-01-08 11:47:00,
2013-01-08 06:52:00,27.5,24.4,30.37,SW,229,2.0,2.0,88,0.00,,---,0.00,VWS V14.01,2013-01-08 11:52:00,
2013-01-08 06:57:00,27.6,24.5,30.37,SSW,196,0.0,4.0,88,0.00,,---,0.00,VWS V14.01,2013-01-08 11:57:00,
2013-01-08 07:02:00,27.6,24.2,30.37,South,191,1.0,3.0,87,0.00,,---,0.00,VWS V14.01,2013-01-08 12:02:00,
2013-01-08 07:07:00,27.5,24.1,30.37,South,184,0.0,2.0,87,0.00,,---,0.00,VWS V14.01,2013-01-08 12:07:00,
2013-01-08 07:12:00,27.6,24.2,30.37,South,188,0.0,3.0,87,0.00,,---,0.00,VWS V14.01,2013-01-08 12:12:00,
2013-01-08 07:17:00,27.7,24.3,30.37,SW,227,5.0,5.0,87,0.00,,---,0.00,VWS V14.01,2013-01-08 12:17:00,
2013-01-08 07:22:00,27.8,24.4,30.37,SSW,198,1.0,4.0,87,0.00,,---,0.00,VWS V14.01,2013-01-08 12:22:00,
2013-01-08 07:27:00,27.9,24.5,30.38,South,191,0.0,4.0,87,0.00,,---,0.00,VWS V14.01,2013-01-08 12:27:00,
2013-01-08 07:32:00,27.9,24.5,30.38,SSW,212,0.0,3.0,87,0.00,,---,0.00,VWS V14.01,2013-01-08 12:32:00,
2013-01-08 07:37:00,28.0,24.6,30.38,SSW,202,1.0,5.0,87,0.00,,---,0.00,VWS V14.01,2013-01-08 12:37:00,
2013-01-08 07:42:00,28.3,24.9,30.38,SW,228,3.0,4.0,87,0.00,,---,0.00,VWS V14.01,2013-01-08 12:42:00,
2013-01-08 07:47:00,28.5,24.9,30.38,SW,229,3.0,5.0,86,0.00,,---,0.00,VWS V14.01,2013-01-08 12:47:00,
2013-01-08 07:52:00,28.7,25.0,30.38,SSW,193,2.0,4.0,86,0.00,,---,0.00,VWS V14.01,2013-01-08 12:52:00,
2013-01-08 07:57:00,28.9,25.2,30.39,SSW,196,1.0,2.0,86,0.00,,---,0.00,VWS V14.01,2013-01-08 12:57:00,
2013-01-08 08:02:00,29.1,25.2,30.38,South,180,2.0,4.0,85,0.00,,---,0.00,VWS V14.01,2013-01-08 13:02:00,
2013-01-08 08:07:00,29.4,25.5,30.39,South,182,1.0,4.0,85,0.00,,---,0.00,VWS V14.01,2013-01-08 13:07:00,
2013-01-08 08:12:00,29.8,25.9,30.39,SSW,207,3.0,4.0,85,0.00,,---,0.00,VWS V14.01,2013-01-08 13:12:00,
2013-01-08 08:17:00,30.2,26.0,30.39,SE,145,2.0,4.0,84,0.00,,---,0.00,VWS V14.01,2013-01-08 13:17:00,
2013-01-08 08:22:00,30.6,26.1,30.39,South,173,2.0,5.0,83,0.00,,---,0.00,VWS V14.01,2013-01-08 13:22:00,
2013-01-08 08:27:00,31.0,26.5,30.39,South,175,1.0,4.0,83,0.00,,---,0.00,VWS V14.01,2013-01-08 13:27:00,
2013-01-08 08:32:00,31.4,26.5,30.39,West,263,3.0,5.0,82,0.00,,---,0.00,VWS V14.01,2013-01-08 13:32:00,
2013-01-08 08:37:00,31.8,26.9,30.39,WSW,252,2.0,4.0,82,0.00,,---,0.00,VWS V14.01,2013-01-08 13:37:00,
2013-01-08 08:42:00,32.2,27.0,30.39,SSW,202,1.0,7.0,81,0.00,,---,0.00,VWS V14.01,2013-01-08 13:42:00,
2013-01-08 08:47:00,32.6,27.1,30.39,South,182,1.0,7.0,80,0.00,,---,0.00,VWS V14.01,2013-01-08 13:47:00,
2013-01-08 08:52:00,32.9,27.1,30.39,South,185,2.0,5.0,79,0.00,,---,0.00,VWS V14.01,2013-01-08 13:52:00,
2013-01-08 08:57:00,33.3,27.5,30.39,SSW,205,2.0,3.0,79,0.00,,---,0.00,VWS V14.01,2013-01-08 13:57:00,
2013-01-08 09:02:00,33.6,27.5,30.39,West,265,4.0,7.0,78,0.00,,---,0.00,VWS V14.01,2013-01-08 14:02:00,
2013-01-08 09:07:00,33.9,27.8,30.39,South,191,0.0,7.0,78,0.00,,---,0.00,VWS V14.01,2013-01-08 14:07:00,
2013-01-08 09:12:00,34.4,27.6,30.39,South,189,2.0,5.0,76,0.00,,---,0.00,VWS V14.01,2013-01-08 14:12:00,
2013-01-08 09:17:00,34.8,28.0,30.39,SW,218,1.0,6.0,76,0.00,,---,0.00,VWS V14.01,2013-01-08 14:17:00,
2013-01-08 09:22:00,35.0,28.2,30.39,SW,229,7.0,7.0,76,0.00,,---,0.00,VWS V14.01,2013-01-08 14:22:00,
2013-01-08 09:27:00,35.2,28.1,30.39,SSW,210,4.0,6.0,75,0.00,,---,0.00,VWS V14.01,2013-01-08 14:27:00,
2013-01-08 09:32:00,35.3,28.2,30.39,WSW,239,6.0,7.0,75,0.00,,---,0.00,VWS V14.01,2013-01-08 14:32:00,
2013-01-08 09:37:00,35.7,28.6,30.39,SW,221,2.0,4.0,75,0.00,,---,0.00,VWS V14.01,2013-01-08 14:37:00,
2013-01-08 09:43:00,35.9,28.4,30.40,South,179,0.0,5.0,74,0.00,,---,0.00,VWS V14.01,2013-01-08 14:43:00,
2013-01-08 09:48:00,36.2,28.4,30.40,SSE,154,2.0,6.0,73,0.00,,---,0.00,VWS V14.01,2013-01-08 14:48:00,
2013-01-08 09:53:00,36.6,28.8,30.40,SW,227,1.0,3.0,73,0.00,,---,0.00,VWS V14.01,2013-01-08 14:53:00,
2013-01-08 09:58:00,36.9,29.1,30.40,SSW,200,1.0,4.0,73,0.00,,---,0.00,VWS V14.01,2013-01-08 14:58:00,
2013-01-08 10:02:00,37.3,29.1,30.40,SE,143,8.0,8.0,72,0.00,,---,0.00,VWS V14.01,2013-01-08 15:02:00,
2013-01-08 10:07:00,37.5,29.0,30.39,South,190,4.0,7.0,71,0.00,,---,0.00,VWS V14.01,2013-01-08 15:07:00,
2013-01-08 10:12:00,37.8,29.3,30.39,SSW,206,4.0,5.0,71,0.00,,---,0.00,VWS V14.01,2013-01-08 15:12:00,
2013-01-08 10:17:00,38.2,30.0,30.39,South,183,2.0,3.0,72,0.00,,---,0.00,VWS V14.01,2013-01-08 15:17:00,
2013-01-08 10:23:00,38.4,29.5,30.39,SSW,212,5.0,6.0,70,0.00,,---,0.00,VWS V14.01,2013-01-08 15:23:00,
2013-01-08 10:28:00,38.6,29.3,30.38,SSE,165,1.0,3.0,69,0.00,,---,0.00,VWS V14.01,2013-01-08 15:28:00,
2013-01-08 10:32:00,38.9,29.6,30.38,SSW,193,2.0,5.0,69,0.00,,---,0.00,VWS V14.01,2013-01-08 15:32:00,
2013-01-08 10:38:00,39.4,29.7,30.38,South,182,4.0,7.0,68,0.00,,---,0.00,VWS V14.01,2013-01-08 15:38:00,
2013-01-08 10:43:00,39.8,29.8,30.38,WSW,241,5.0,8.0,67,0.00,,---,0.00,VWS V14.01,2013-01-08 15:43:00,
2013-01-08 10:48:00,40.3,29.9,30.38,SW,217,3.0,6.0,66,0.00,,---,0.00,VWS V14.01,2013-01-08 15:48:00,
2013-01-08 10:53:00,40.8,30.3,30.37,South,178,3.0,5.0,66,0.00,,---,0.00,VWS V14.01,2013-01-08 15:53:00,
2013-01-08 10:58:00,41.2,30.0,30.36,West,261,4.0,9.0,64,0.00,,---,0.00,VWS V14.01,2013-01-08 15:58:00,
2013-01-08 11:03:00,41.4,30.1,30.36,SW,230,2.0,8.0,64,0.00,,---,0.00,VWS V14.01,2013-01-08 16:03:00,
2013-01-08 11:08:00,41.5,29.9,30.36,WNW,297,3.0,7.0,63,0.00,,---,0.00,VWS V14.01,2013-01-08 16:08:00,
2013-01-08 11:13:00,41.6,30.0,30.36,SSW,203,1.0,5.0,63,0.00,,---,0.00,VWS V14.01,2013-01-08 16:13:00,
2013-01-08 11:18:00,41.9,29.9,30.36,SSW,196,3.0,6.0,62,0.00,,---,0.00,VWS V14.01,2013-01-08 16:18:00,
2013-01-08 11:23:00,42.1,29.6,30.36,WSW,240,7.0,7.0,61,0.00,,---,0.00,VWS V14.01,2013-01-08 16:23:00,
2013-01-08 11:28:00,42.0,29.9,30.36,SW,235,5.0,6.0,62,0.00,,---,0.00,VWS V14.01,2013-01-08 16:28:00,
2013-01-08 11:33:00,42.2,29.7,30.36,SE,134,3.0,6.0,61,0.00,,---,0.00,VWS V14.01,2013-01-08 16:33:00,
2013-01-08 11:38:00,42.4,29.5,30.36,South,186,3.0,7.0,60,0.00,,---,0.00,VWS V14.01,2013-01-08 16:38:00,
2013-01-08 11:43:00,42.5,29.6,30.36,SSW,204,3.0,4.0,60,0.00,,---,0.00,VWS V14.01,2013-01-08 16:43:00,
2013-01-08 11:48:00,42.7,30.2,30.36,SSW,202,0.0,4.0,61,0.00,,---,0.00,VWS V14.01,2013-01-08 16:48:00,
2013-01-08 11:53:00,43.0,30.5,30.35,SSW,198,1.0,3.0,61,0.00,,---,0.00,VWS V14.01,2013-01-08 16:53:00,
2013-01-08 11:58:00,43.2,29.9,30.35,SW,235,4.0,4.0,59,0.00,,---,0.00,VWS V14.01,2013-01-08 16:58:00,
2013-01-08 12:03:00,43.3,30.0,30.35,SSW,213,2.0,6.0,59,0.00,,---,0.00,VWS V14.01,2013-01-08 17:03:00,
2013-01-08 12:08:00,43.2,29.9,30.34,South,170,1.0,3.0,59,0.00,,---,0.00,VWS V14.01,2013-01-08 17:08:00,
2013-01-08 12:13:00,43.2,29.9,30.34,SSW,202,2.0,4.0,59,0.00,,---,0.00,VWS V14.01,2013-01-08 17:13:00,
2013-01-08 12:18:00,43.1,29.8,30.34,WSW,244,3.0,5.0,59,0.00,,---,0.00,VWS V14.01,2013-01-08 17:18:00,
2013-01-08 12:23:00,43.1,29.8,30.34,WNW,282,3.0,6.0,59,0.00,,---,0.00,VWS V14.01,2013-01-08 17:23:00,
2013-01-08 12:28:00,43.2,29.9,30.34,SSW,209,5.0,8.0,59,0.00,,---,0.00,VWS V14.01,2013-01-08 17:28:00,
2013-01-08 12:33:00,43.2,29.4,30.34,SSW,211,1.0,6.0,58,0.00,,---,0.00,VWS V14.01,2013-01-08 17:33:00,
2013-01-08 12:38:00,43.4,30.0,30.33,SSW,209,2.0,5.0,59,0.00,,---,0.00,VWS V14.01,2013-01-08 17:38:00,
2013-01-08 12:43:00,43.6,30.2,30.33,SW,233,4.0,4.0,59,0.00,,---,0.00,VWS V14.01,2013-01-08 17:43:00,
2013-01-08 12:48:00,43.5,30.1,30.33,WSW,252,2.0,4.0,59,0.00,,---,0.00,VWS V14.01,2013-01-08 17:48:00,
2013-01-08 12:53:00,43.5,29.7,30.33,SSW,209,1.0,4.0,58,0.00,,---,0.00,VWS V14.01,2013-01-08 17:53:00,
2013-01-08 12:58:00,43.8,30.4,30.32,SW,225,3.0,4.0,59,0.00,,---,0.00,VWS V14.01,2013-01-08 17:58:00,
2013-01-08 13:03:00,43.8,30.0,30.32,WSW,242,2.0,4.0,58,0.00,,---,0.00,VWS V14.01,2013-01-08 18:03:00,
2013-01-08 13:08:00,43.7,29.9,30.32,West,259,3.0,4.0,58,0.00,,---,0.00,VWS V14.01,2013-01-08 18:08:00,
2013-01-08 13:13:00,43.6,30.2,30.32,SW,219,1.0,4.0,59,0.00,,---,0.00,VWS V14.01,2013-01-08 18:13:00,
2013-01-08 13:18:00,43.4,29.6,30.32,SSW,207,0.0,7.0,58,0.00,,---,0.00,VWS V14.01,2013-01-08 18:18:00,
2013-01-08 13:23:00,43.3,30.0,30.32,SSW,208,2.0,4.0,59,0.00,,---,0.00,VWS V14.01,2013-01-08 18:23:00,
2013-01-08 13:28:00,43.1,30.2,30.32,SW,215,0.0,3.0,60,0.00,,---,0.00,VWS V14.01,2013-01-08 18:28:00,
2013-01-08 13:33:00,43.0,29.7,30.32,SSW,202,1.0,6.0,59,0.00,,---,0.00,VWS V14.01,2013-01-08 18:33:00,
2013-01-08 13:38:00,42.9,29.6,30.32,SSW,206,3.0,5.0,59,0.00,,---,0.00,VWS V14.01,2013-01-08 18:38:00,
2013-01-08 13:43:00,42.9,29.6,30.33,SSW,207,2.0,5.0,59,0.00,,---,0.00,VWS V14.01,2013-01-08 18:43:00,
2013-01-08 13:48:00,42.9,29.6,30.33,SW,220,0.0,4.0,59,0.00,,---,0.00,VWS V14.01,2013-01-08 18:48:00,
2013-01-08 13:53:00,43.2,29.9,30.33,SSW,192,0.0,5.0,59,0.00,,---,0.00,VWS V14.01,2013-01-08 18:53:00,
2013-01-08 13:58:00,43.4,30.0,30.33,South,189,0.0,1.0,59,0.00,,---,0.00,VWS V14.01,2013-01-08 18:58:00,
2013-01-08 14:03:00,43.5,30.1,30.33,SSW,198,0.0,3.0,59,0.00,,---,0.00,VWS V14.01,2013-01-08 19:03:00,
2013-01-08 14:08:00,43.6,30.2,30.33,SSE,159,0.0,1.0,59,0.00,,---,0.00,VWS V14.01,2013-01-08 19:08:00,
2013-01-08 14:13:00,43.7,30.7,30.33,SSE,155,0.0,3.0,60,0.00,,---,0.00,VWS V14.01,2013-01-08 19:13:00,
2013-01-08 14:18:00,43.8,30.0,30.33,SSE,155,0.0,3.0,58,0.00,,---,0.00,VWS V14.01,2013-01-08 19:18:00,
2013-01-08 14:23:00,43.8,30.0,30.33,SE,134,0.0,5.0,58,0.00,,---,0.00,VWS V14.01,2013-01-08 19:23:00,
2013-01-08 14:28:00,43.8,30.4,30.33,SSE,164,4.0,4.0,59,0.00,,---,0.00,VWS V14.01,2013-01-08 19:28:00,
2013-01-08 14:33:00,43.6,30.2,30.34,SW,233,0.0,4.0,59,0.00,,---,0.00,VWS V14.01,2013-01-08 19:33:00,
2013-01-08 14:38:00,43.5,29.7,30.34,SW,236,0.0,3.0,58,0.00,,---,0.00,VWS V14.01,2013-01-08 19:38:00,
2013-01-08 14:43:00,43.6,29.8,30.34,South,169,0.0,3.0,58,0.00,,---,0.00,VWS V14.01,2013-01-08 19:43:00,
2013-01-08 14:48:00,43.5,29.7,30.34,SSW,208,2.0,3.0,58,0.00,,---,0.00,VWS V14.01,2013-01-08 19:48:00,
2013-01-08 14:53:00,43.6,30.2,30.34,South,180,1.0,1.0,59,0.00,,---,0.00,VWS V14.01,2013-01-08 19:53:00,
2013-01-08 14:58:00,43.5,30.1,30.34,SSE,157,0.0,2.0,59,0.00,,---,0.00,VWS V14.01,2013-01-08 19:58:00,
2013-01-08 15:03:00,43.3,29.5,30.34,East,98,1.0,3.0,58,0.00,,---,0.00,VWS V14.01,2013-01-08 20:03:00,
2013-01-08 15:08:00,43.2,29.9,30.34,SE,124,1.0,1.0,59,0.00,,---,0.00,VWS V14.01,2013-01-08 20:08:00,
2013-01-08 15:13:00,43.0,30.5,30.34,South,189,0.0,3.0,61,0.00,,---,0.00,VWS V14.01,2013-01-08 20:13:00,
2013-01-08 15:18:00,42.8,29.9,30.34,SSW,213,0.0,1.0,60,0.00,,---,0.00,VWS V14.01,2013-01-08 20:18:00,
2013-01-08 15:23:00,42.8,29.9,30.34,North,11,2.0,2.0,60,0.00,,---,0.00,VWS V14.01,2013-01-08 20:23:00,
2013-01-08 15:28:00,42.8,29.9,30.34,WSW,250,1.0,4.0,60,0.00,,---,0.00,VWS V14.01,2013-01-08 20:28:00,
2013-01-08 15:33:00,42.7,29.8,30.34,SSW,210,1.0,3.0,60,0.00,,---,0.00,VWS V14.01,2013-01-08 20:33:00,
2013-01-08 15:38:00,42.7,30.2,30.35,South,191,0.0,1.0,61,0.00,,---,0.00,VWS V14.01,2013-01-08 20:38:00,
2013-01-08 15:43:00,42.6,30.1,30.35,SW,226,0.0,2.0,61,0.00,,---,0.00,VWS V14.01,2013-01-08 20:43:00,
2013-01-08 15:48:00,42.5,30.0,30.35,South,190,0.0,0.0,61,0.00,,---,0.00,VWS V14.01,2013-01-08 20:48:00,
2013-01-08 15:53:00,42.2,29.7,30.35,South,190,0.0,1.0,61,0.00,,---,0.00,VWS V14.01,2013-01-08 20:53:00,
2013-01-08 15:58:00,42.0,29.9,30.35,South,188,0.0,0.0,62,0.00,,---,0.00,VWS V14.01,2013-01-08 20:58:00,
2013-01-08 16:03:00,41.7,29.7,30.35,South,188,0.0,0.0,62,0.00,,---,0.00,VWS V14.01,2013-01-08 21:03:00,
2013-01-08 16:08:00,41.3,29.7,30.35,South,188,0.0,0.0,63,0.00,,---,0.00,VWS V14.01,2013-01-08 21:08:00,
2013-01-08 16:13:00,40.9,29.7,30.34,South,188,0.0,0.0,64,0.00,,---,0.00,VWS V14.01,2013-01-08 21:13:00,
2013-01-08 16:18:00,40.6,29.8,30.34,South,188,0.0,0.0,65,0.00,,---,0.00,VWS V14.01,2013-01-08 21:18:00,
2013-01-08 16:23:00,40.1,30.0,30.34,South,188,0.0,0.0,67,0.00,,---,0.00,VWS V14.01,2013-01-08 21:23:00,
2013-01-08 16:28:00,39.7,29.7,30.34,South,188,0.0,0.0,67,0.00,,---,0.00,VWS V14.01,2013-01-08 21:28:00,
2013-01-08 16:33:00,39.3,29.3,30.35,South,188,0.0,0.0,67,0.00,,---,0.00,VWS V14.01,2013-01-08 21:33:00,
2013-01-08 16:38:00,39.1,29.5,30.35,South,188,0.0,0.0,68,0.00,,---,0.00,VWS V14.01,2013-01-08 21:38:00,
2013-01-08 16:43:00,38.8,29.9,30.35,South,188,0.0,0.0,70,0.00,,---,0.00,VWS V14.01,2013-01-08 21:43:00,
2013-01-08 16:48:00,38.3,29.4,30.35,South,188,0.0,0.0,70,0.00,,---,0.00,VWS V14.01,2013-01-08 21:48:00,
2013-01-08 16:53:00,37.9,29.0,30.35,South,188,0.0,0.0,70,0.00,,---,0.00,VWS V14.01,2013-01-08 21:53:00,
2013-01-08 16:58:00,37.4,29.2,30.35,South,188,0.0,0.0,72,0.00,,---,0.00,VWS V14.01,2013-01-08 21:58:00,
2013-01-08 17:03:00,36.9,29.4,30.35,South,188,0.0,0.0,74,0.00,,---,0.00,VWS V14.01,2013-01-08 22:03:00,
2013-01-08 17:08:00,36.4,28.9,30.35,South,188,0.0,0.0,74,0.00,,---,0.00,VWS V14.01,2013-01-08 22:08:00,
2013-01-08 17:13:00,36.0,28.9,30.35,South,188,0.0,0.0,75,0.00,,---,0.00,VWS V14.01,2013-01-08 22:13:00,
2013-01-08 17:18:00,35.7,29.2,30.36,South,188,0.0,0.0,77,0.00,,---,0.00,VWS V14.01,2013-01-08 22:18:00,
2013-01-08 17:23:00,35.6,29.4,30.36,South,188,0.0,0.0,78,0.00,,---,0.00,VWS V14.01,2013-01-08 22:23:00,
2013-01-08 17:28:00,35.2,28.7,30.36,South,188,0.0,0.0,77,0.00,,---,0.00,VWS V14.01,2013-01-08 22:28:00,
2013-01-08 17:33:00,34.8,28.6,30.36,South,188,0.0,0.0,78,0.00,,---,0.00,VWS V14.01,2013-01-08 22:33:00,
2013-01-08 17:38:00,34.6,28.8,30.36,South,188,0.0,0.0,79,0.00,,---,0.00,VWS V14.01,2013-01-08 22:38:00,
2013-01-08 17:43:00,34.3,28.8,30.36,South,188,0.0,0.0,80,0.00,,---,0.00,VWS V14.01,2013-01-08 22:43:00,
2013-01-08 17:48:00,34.1,28.9,30.37,South,188,0.0,0.0,81,0.00,,---,0.00,VWS V14.01,2013-01-08 22:48:00,
2013-01-08 17:53:00,34.0,28.8,30.37,South,188,0.0,0.0,81,0.00,,---,0.00,VWS V14.01,2013-01-08 22:53:00,
2013-01-08 17:58:00,33.9,29.0,30.37,South,188,0.0,0.0,82,0.00,,---,0.00,VWS V14.01,2013-01-08 22:58:00,
2013-01-08 18:03:00,34.3,29.1,30.37,South,188,0.0,0.0,81,0.00,,---,0.00,VWS V14.01,2013-01-08 23:03:00,
2013-01-08 18:08:00,34.4,29.2,30.37,South,188,0.0,0.0,81,0.00,,---,0.00,VWS V14.01,2013-01-08 23:08:00,
2013-01-08 18:13:00,34.5,29.0,30.37,South,188,0.0,0.0,80,0.00,,---,0.00,VWS V14.01,2013-01-08 23:13:00,
2013-01-08 18:18:00,34.6,29.4,30.37,South,188,0.0,0.0,81,0.00,,---,0.00,VWS V14.01,2013-01-08 23:18:00,
2013-01-08 18:23:00,34.3,29.1,30.37,South,188,0.0,0.0,81,0.00,,---,0.00,VWS V14.01,2013-01-08 23:23:00,
2013-01-08 18:28:00,34.1,28.9,30.38,South,188,0.0,0.0,81,0.00,,---,0.00,VWS V14.01,2013-01-08 23:28:00,
2013-01-08 18:33:00,33.8,28.9,30.37,South,188,0.0,0.0,82,0.00,,---,0.00,VWS V14.01,2013-01-08 23:33:00,
2013-01-08 18:38:00,33.5,28.6,30.37,South,188,0.0,0.0,82,0.00,,---,0.00,VWS V14.01,2013-01-08 23:38:00,
2013-01-08 18:43:00,33.3,28.7,30.38,South,188,0.0,0.0,83,0.00,,---,0.00,VWS V14.01,2013-01-08 23:43:00,
2013-01-08 18:48:00,33.2,28.6,30.38,South,188,0.0,0.0,83,0.00,,---,0.00,VWS V14.01,2013-01-08 23:48:00,
2013-01-08 18:53:00,33.2,28.9,30.38,South,188,0.0,0.0,84,0.00,,---,0.00,VWS V14.01,2013-01-08 23:53:00,
2013-01-08 18:58:00,33.0,28.7,30.38,South,188,0.0,0.0,84,0.00,,---,0.00,VWS V14.01,2013-01-08 23:58:00,
2013-01-08 19:03:00,32.7,28.4,30.38,South,188,0.0,0.0,84,0.00,,---,0.00,VWS V14.01,2013-01-09 00:03:00,
2013-01-08 19:08:00,32.4,28.1,30.38,South,188,0.0,0.0,84,0.00,,---,0.00,VWS V14.01,2013-01-09 00:08:00,
2013-01-08 19:13:00,32.3,28.3,30.38,South,188,0.0,0.0,85,0.00,,---,0.00,VWS V14.01,2013-01-09 00:13:00,
2013-01-08 19:18:00,32.3,28.6,30.39,South,188,0.0,0.0,86,0.00,,---,0.00,VWS V14.01,2013-01-09 00:18:00,
2013-01-08 19:23:00,32.2,28.5,30.38,South,188,0.0,0.0,86,0.00,,---,0.00,VWS V14.01,2013-01-09 00:23:00,
2013-01-08 19:28:00,32.1,28.4,30.39,South,188,0.0,0.0,86,0.00,,---,0.00,VWS V14.01,2013-01-09 00:28:00,
2013-01-08 19:33:00,32.2,28.5,30.39,South,188,0.0,0.0,86,0.00,,---,0.00,VWS V14.01,2013-01-09 00:33:00,
2013-01-08 19:38:00,32.1,28.4,30.39,South,188,0.0,0.0,86,0.00,,---,0.00,VWS V14.01,2013-01-09 00:38:00,
2013-01-08 19:43:00,32.1,28.4,30.40,South,188,0.0,0.0,86,0.00,,---,0.00,VWS V14.01,2013-01-09 00:43:00,
2013-01-08 19:48:00,32.1,28.4,30.40,South,188,0.0,0.0,86,0.00,,---,0.00,VWS V14.01,2013-01-09 00:48:00,
2013-01-08 19:53:00,32.0,28.3,30.40,South,188,0.0,0.0,86,0.00,,---,0.00,VWS V14.01,2013-01-09 00:53:00,
2013-01-08 19:58:00,31.9,28.2,30.40,South,188,0.0,0.0,86,0.00,,---,0.00,VWS V14.01,2013-01-09 00:58:00,
2013-01-08 20:03:00,31.8,28.1,30.40,South,188,0.0,0.0,86,0.00,,---,0.00,VWS V14.01,2013-01-09 01:03:00,
2013-01-08 20:08:00,31.7,28.3,30.41,South,188,0.0,0.0,87,0.00,,---,0.00,VWS V14.01,2013-01-09 01:08:00,
2013-01-08 20:13:00,31.7,28.3,30.41,South,188,0.0,0.0,87,0.00,,---,0.00,VWS V14.01,2013-01-09 01:13:00,
2013-01-08 20:18:00,31.6,27.9,30.41,South,188,0.0,0.0,86,0.00,,---,0.00,VWS V14.01,2013-01-09 01:18:00,
2013-01-08 20:23:00,31.4,27.7,30.41,South,188,0.0,0.0,86,0.00,,---,0.00,VWS V14.01,2013-01-09 01:23:00,
2013-01-08 20:28:00,31.1,27.4,30.41,South,188,0.0,0.0,86,0.00,,---,0.00,VWS V14.01,2013-01-09 01:28:00,
2013-01-08 20:33:00,30.8,27.4,30.41,South,188,0.0,0.0,87,0.00,,---,0.00,VWS V14.01,2013-01-09 01:33:00,
2013-01-08 20:38:00,30.6,27.2,30.41,South,188,0.0,0.0,87,0.00,,---,0.00,VWS V14.01,2013-01-09 01:38:00,
2013-01-08 20:43:00,30.4,27.3,30.40,South,188,0.0,0.0,88,0.00,,---,0.00,VWS V14.01,2013-01-09 01:43:00,
2013-01-08 20:48:00,30.1,27.0,30.41,South,188,0.0,0.0,88,0.00,,---,0.00,VWS V14.01,2013-01-09 01:48:00,
2013-01-08 20:53:00,29.9,27.1,30.41,South,188,0.0,0.0,89,0.00,,---,0.00,VWS V14.01,2013-01-09 01:53:00,
2013-01-08 20:58:00,29.7,26.9,30.41,South,188,0.0,0.0,89,0.00,,---,0.00,VWS V14.01,2013-01-09 01:58:00,
2013-01-08 21:03:00,29.6,27.0,30.41,South,188,0.0,0.0,90,0.00,,---,0.00,VWS V14.01,2013-01-09 02:03:00,
2013-01-08 21:08:00,29.4,26.8,30.41,South,188,0.0,0.0,90,0.00,,---,0.00,VWS V14.01,2013-01-09 02:08:00,
2013-01-08 21:13:00,29.2,26.6,30.40,South,188,0.0,0.0,90,0.00,,---,0.00,VWS V14.01,2013-01-09 02:13:00,
2013-01-08 21:18:00,29.0,26.4,30.41,South,188,0.0,0.0,90,0.00,,---,0.00,VWS V14.01,2013-01-09 02:18:00,
2013-01-08 21:23:00,28.8,26.5,30.41,South,188,0.0,0.0,91,0.00,,---,0.00,VWS V14.01,2013-01-09 02:23:00,
2013-01-08 21:28:00,28.7,26.4,30.41,South,188,0.0,0.0,91,0.00,,---,0.00,VWS V14.01,2013-01-09 02:28:00,
2013-01-08 21:33:00,28.6,26.3,30.41,South,188,0.0,0.0,91,0.00,,---,0.00,VWS V14.01,2013-01-09 02:33:00,
2013-01-08 21:38:00,28.5,26.2,30.41,South,188,0.0,0.0,91,0.00,,---,0.00,VWS V14.01,2013-01-09 02:38:00,
2013-01-08 21:43:00,28.5,26.5,30.41,South,188,0.0,0.0,92,0.00,,---,0.00,VWS V14.01,2013-01-09 02:43:00,
2013-01-08 21:48:00,28.6,26.6,30.41,South,188,0.0,0.0,92,0.00,,---,0.00,VWS V14.01,2013-01-09 02:48:00,
2013-01-08 21:53:00,28.8,27.0,30.41,South,188,0.0,0.0,93,0.00,,---,0.00,VWS V14.01,2013-01-09 02:53:00,
2013-01-08 21:58:00,29.2,27.4,30.41,South,188,0.0,0.0,93,0.00,,---,0.00,VWS V14.01,2013-01-09 02:58:00,
2013-01-08 22:03:00,29.5,27.5,30.40,South,188,0.0,0.0,92,0.00,,---,0.00,VWS V14.01,2013-01-09 03:03:00,
2013-01-08 22:08:00,29.6,27.6,30.41,South,188,0.0,0.0,92,0.00,,---,0.00,VWS V14.01,2013-01-09 03:08:00,
2013-01-08 22:13:00,29.7,27.7,30.41,South,188,0.0,0.0,92,0.00,,---,0.00,VWS V14.01,2013-01-09 03:13:00,
2013-01-08 22:18:00,29.8,27.8,30.41,South,188,0.0,0.0,92,0.00,,---,0.00,VWS V14.01,2013-01-09 03:18:00,
2013-01-08 22:23:00,29.9,27.9,30.41,South,188,0.0,0.0,92,0.00,,---,0.00,VWS V14.01,2013-01-09 03:23:00,
2013-01-08 22:28:00,30.0,27.7,30.41,South,188,0.0,1.0,91,0.00,,---,0.00,VWS V14.01,2013-01-09 03:28:00,
2013-01-08 22:33:00,30.1,27.8,30.41,South,188,0.0,1.0,91,0.00,,---,0.00,VWS V14.01,2013-01-09 03:33:00,
2013-01-08 22:38:00,30.1,27.8,30.41,South,188,0.0,0.0,91,0.00,,---,0.00,VWS V14.01,2013-01-09 03:38:00,
2013-01-08 22:43:00,30.2,27.6,30.41,South,188,0.0,0.0,90,0.00,,---,0.00,VWS V14.01,2013-01-09 03:43:00,
2013-01-08 22:48:00,30.2,27.6,30.41,South,188,0.0,0.0,90,0.00,,---,0.00,VWS V14.01,2013-01-09 03:48:00,
2013-01-08 22:53:00,30.1,27.5,30.41,South,188,0.0,0.0,90,0.00,,---,0.00,VWS V14.01,2013-01-09 03:53:00,
2013-01-08 22:58:00,29.9,27.3,30.40,South,188,0.0,0.0,90,0.00,,---,0.00,VWS V14.01,2013-01-09 03:58:00,
2013-01-08 23:03:00,29.8,27.2,30.40,South,188,0.0,0.0,90,0.00,,---,0.00,VWS V14.01,2013-01-09 04:03:00,
2013-01-08 23:08:00,29.8,27.5,30.40,South,188,0.0,1.0,91,0.00,,---,0.00,VWS V14.01,2013-01-09 04:08:00,
2013-01-08 23:13:00,30.1,27.8,30.40,South,188,0.0,0.0,91,0.00,,---,0.00,VWS V14.01,2013-01-09 04:13:00,
2013-01-08 23:18:00,30.3,28.0,30.40,South,188,0.0,1.0,91,0.00,,---,0.00,VWS V14.01,2013-01-09 04:18:00,
2013-01-08 23:23:00,30.5,27.9,30.40,South,188,0.0,0.0,90,0.00,,---,0.00,VWS V14.01,2013-01-09 04:23:00,
2013-01-08 23:28:00,30.7,28.1,30.40,South,188,0.0,0.0,90,0.00,,---,0.00,VWS V14.01,2013-01-09 04:28:00,
2013-01-08 23:33:00,30.7,28.1,30.40,South,188,0.0,0.0,90,0.00,,---,0.00,VWS V14.01,2013-01-09 04:33:00,
2013-01-08 23:39:00,31.0,28.4,30.40,South,189,1.0,2.0,90,0.00,,---,0.00,VWS V14.01,2013-01-09 04:39:00,
2013-01-08 23:44:00,31.4,28.5,30.40,South,189,0.0,0.0,89,0.00,,---,0.00,VWS V14.01,2013-01-09 04:44:00,
2013-01-08 23:49:00,31.5,28.4,30.40,South,189,0.0,0.0,88,0.00,,---,0.00,VWS V14.01,2013-01-09 04:49:00,
2013-01-08 23:54:00,31.5,28.1,30.40,South,189,0.0,0.0,87,0.00,,---,0.00,VWS V14.01,2013-01-09 04:54:00,
2013-01-08 23:59:00,31.4,28.0,30.40,South,189,0.0,0.0,87,0.00,,---,0.00,VWS V14.01,2013-01-09 04:59:00,